Location: Anumalkud?ru
(16.4847°N, 80.6636°E)
Time: 15:00:30
(UTC+00:00)

USA 229 - Pass Details

Date: 11 April 2026
Orbit: 843 x 1365 km, 63.4° (Epoch: 10 January)

Event Time Altitude Azimuth Distance (km) Brightness Sun altitude
Rises 22:31:28 0° 336° (NNW) 4,224 6.8 -27.1°
Reaches altitude 10° 22:34:13 10° 337° (NNW) 3,306 6.2 -26.5°
Maximum altitude 22:42:26 85° 65° (ENE) 1,361 4.2 -24.6°
Drops below altitude 10° 22:50:55 10° 155° (SSE) 3,405 6.4 -22.7°
Sets 22:53:46 0° 155° (SSE) 4,356 7.0 -22.0°
